STARLINK-11628, 63139

Orbit data source: Space-Track

STARLINK-11628, 63139 is a payload satellite owned by SpaceX/Seattle (US) in LEO that was launched on Mon, 03 Mar 2025 UTC via an FALCON 9 launch vehicle from the Air Force Eastern Test Range (AFETR). Payload-class satellites include a variety of spacecraft equipped with specific instruments for various scientific and technological missions. These include communications satellites like Starlink; space stations such as the ISS; scientific satellites like the Hubble; Earth observation satellites from companies like Planet Labs, Umbra, and HawkEye 360; GPS; miniature CubeSats for education and research; and military/defense satellites.

Loading next visibility...
Identifier
63139, 2025-043H
Orbit
LEO
Country
Flag of USUS
Related business
Manufacturer
SpaceX/Seattle
Mission
Operational Commercial Communications
Bus & Motor
STARLINK V2MD, Unknown motor
Mass
960 kg wet, ~910 kg dry
Launch date (UTC)
2025-03-03 (6 months ago)
Launch vehicle
FALCON 9
Launch site
Air Force Eastern Test Range (AFETR)
Object type
Payload
Rocket body
Debris
Shape & HBR
Box + 2 Pan, 14.5 m
Radar Cross Section
36.964 m², Large (>1 m²)

Expand to show TLE details & history
Last TLE update: 16 hours ago

TLE from 16 hours ago
0 STARLINK-11628
1 63139U 25043H   25258.27049049  .00376309  00000-0  27915-2 0  9997
2 63139  43.0011 228.0473 0002520 271.2728  88.7851 15.70958451 31889
Epoch: 2025-09-15T06:29Z
TLE epoch observation values (Epoch: 2025-09-15T06:29:30.378Z)
Latitude
-0.00001°
Longitude
136.19316°
Altitude
355.892 km
Speed
7.698 km/s
True Right ascension
15h 12m 11s
True Declination
0° 00' 00"
Sunlit
Object was in daylight at epoch
Visualization orbit readout
Latitude
Unknown
Longitude
Unknown
Altitude
Unknown
Speed
Unknown
Apparent Right ascension
Unknown
Apparent Declination
Unknown
Sunlit
N/A
Visualization observer readout
Local Sidereal Time
14:41:39
Azimuth
Unknown
Elevation
Unknown
Doppler factor
Unknown
Orbital elements
Apogee altitude
359.836 km
Perigee altitude
356.44 km
Semi-major axis
6,736.275 km
Eccentricity
0.00025
Inclination
43.0011°
RAAN
228.0473°
Arg. of periapsis
271.2728°
True anomaly
88.81397°
Mean anomaly
88.7851°
Eccentric anomaly
88.79954°
Mean motion
3.92567 °/min
Orbital period
91.7 mins
BSTAR
0.0027915
Loading maneuver chart data...
Computing Atmospheric mass density...
Loading historical data...
Loading historical data...
Loading historical data...
Loading historical data...
Loading historical data...
Loading historical data...
Loading historical data...

Documentation

Showing up to 5 results
|